This is the latest recevied weather packets stored in our database for station/object N1TKS. If no packets are shown the sender has not sent any weather packets the latest 10 day(s).
| Time | Temp. | Humidity | Pressure | Rain* | Wind** | Luminosity | Snow |
|---|---|---|---|---|---|---|---|
| 1777617713 | 9.44° C | 64% | 1011.3 hPa | 0 mm | - | - | - |
| 1777617114 | 9.44° C | 64% | 1011.2 hPa | 0 mm | - | - | - |
| 1777616814 | 9.44° C | 64% | 1011.2 hPa | 0 mm | - | - | - |
| 1777616735 | 9.44° C | 71% | 1011.1 hPa | 0 mm | - | - | - |
| 1777616267 | 9.44° C | 66% | 1011.2 hPa | 0 mm | - | - | - |
| 1777616213 | 9.44° C | 66% | 1011.2 hPa | 0 mm | - | - | - |
| 1777615914 | 9.44° C | 68% | 1011.2 hPa | 0 mm | - | - | - |
| 1777615613 | 9.44° C | 69% | 1011.1 hPa | 0 mm | - | - | - |
| 1777615313 | 9.44° C | 72% | 1011.1 hPa | 0 mm | - | - | - |
| 1777615014 | 9.44° C | 71% | 1011.1 hPa | 0 mm | - | - | - |
| 1777614414 | 10° C | 73% | 1011.1 hPa | 0 mm | - | - | - |
| 1777614114 | 10° C | 72% | 1011 hPa | 0 mm | - | - | - |
| 1777613515 | 10° C | 68% | 1010.9 hPa | 0 mm | - | - | - |
| 1777613219 | 10.56° C | 68% | 1010.9 hPa | 0 mm | - | - | - |
| 1777612716 | 10.56° C | 68% | 1010.9 hPa | 0 mm | - | - | - |
| 1777612613 | 10.56° C | 68% | 1010.9 hPa | 0 mm | - | - | - |
| 1777612314 | 10.56° C | 68% | 1010.9 hPa | 0 mm | - | - | - |
| 1777612013 | 10.56° C | 68% | 1010.7 hPa | 0 mm | - | - | - |
| 1777611714 | 10.56° C | 68% | 1010.7 hPa | 0 mm | - | - | - |
| 1777611117 | 11.11° C | 68% | 1010.7 hPa | 0 mm | - | - | - |
| 1777610990 | 11.11° C | 69% | 1010.8 hPa | 0 mm | - | - | - |
| 1777610513 | 11.11° C | 68% | 1010.8 hPa | 0 mm | - | - | - |
| 1777610214 | 11.11° C | 68% | 1010.8 hPa | 0 mm | - | - | - |
| 1777609913 | 11.11° C | 69% | 1010.8 hPa | 0 mm | - | - | - |
| 1777609645 | 11.11° C | 69% | 1010.8 hPa | 0 mm | - | - | - |
* Rain latest hour (hover to see other rain measurements)
** Current wind speed in m/s (hover to see current wind gust speed)